Flag for Brazil

Past Weather in Rio Branco, Acre, Brazil — Yesterday and Last 2 Weeks

Now
77 °F

Thunderstorms. Partly sunny.


Feels Like: 78 °F
Forecast: N/A
Wind: 9 mph from Southwest

Location: Rio Branco Airport
Current Time: Sep 28, 2020 at 5:56:02 pm
Latest Report: Sep 28, 2020 at 5:00 pm
Visibility: N/A
Pressure29.77 "Hg
Humidity: 94%
Dew Point: 75 °F
Location of Rio BrancoLocation

Past Weather in Rio Branco — Graph

°F

Rio Branco Temperature Yesterday

Maximum temperature yesterday: 93 °F (at 1:00 pm)
Minimum temperature yesterday: 73 °F (at 5:00 am)
Average temperature yesterday: 81 °F

High & Low Weather Summary for the Past Weeks

 TemperatureHumidityPressure
High97 °F (Sep 24, 2:00 pm)100% (Sep 14, 4:00 am)30.07 "Hg (Sep 14, 4:00 am)
Low66 °F (Sep 22, 12:00 am)37% (Sep 24, 2:00 pm)29.71 "Hg (Sep 27, 3:00 pm)
Average80 °F76%29.89 "Hg
* Reported Sep 13 4:00 pm — Sep 28 4:27 pm, Rio Branco. Weather by CustomWeather, © 2020

Note: Actual official high and low records may vary slightly from our data, if they occured in-between our weather recording intervals... More about our weather records

Rio Branco Weather History for the Previous 24 Hours

Scroll right to see more
 ConditionsComfort  
Time TempWeatherWind HumidityBarometerVisibility
4:27 pm
Mon, Sep 28
81 °FThundershowers. Partly sunny.6 mph79%29.74 "HgN/A
4:00 pm84 °FPartly sunny.10 mph70%29.71 "HgN/A
3:00 pm88 °FScattered clouds.3 mph66%29.71 "HgN/A
2:00 pm81 °FLight rain. Scattered clouds.12 mph66%29.74 "HgN/A
1:36 pm82 °FRain. Scattered clouds.10 mph74%29.77 "Hg2 mi
1:00 pm91 °FScattered clouds.6 mph49%29.77 "HgN/A
12:00 pm91 °FScattered clouds.6 mph49%29.83 "HgN/A
11:00 am91 °FScattered clouds.7 mph52%29.89 "HgN/A
10:00 am88 °FScattered clouds.7 mph59%29.92 "HgN/A
9:00 am86 °FSunny.8 mph62%29.92 "Hg10 mi
8:00 am84 °FSunny.8 mph66%29.89 "Hg10 mi
7:00 am77 °FSunny.6 mph83%29.89 "Hg10 mi
6:00 am70 °FSunny.3 mph100%29.83 "Hg10 mi
5:00 am72 °FClear.2 mph100%29.80 "Hg10 mi
4:00 am73 °FClear.1 mph94%29.77 "Hg10 mi
3:00 am73 °FClear.No wind94%29.77 "Hg10 mi
2:00 am75 °FClear.5 mph89%29.77 "Hg10 mi
1:00 am75 °FClear.5 mph89%29.80 "Hg10 mi
12:00 am75 °FClear.2 mph89%29.83 "Hg10 mi
11:00 pm
Sun, Sep 27
75 °FClear.No wind89%29.83 "Hg10 mi
10:00 pm79 °FClear.5 mph79%29.86 "Hg10 mi
9:00 pm79 °FClear.2 mph79%29.83 "Hg10 mi
8:00 pm79 °FPassing clouds.2 mph74%29.80 "HgN/A
7:00 pm82 °FPassing clouds.5 mph66%29.77 "HgN/A
6:00 pm86 °FPassing clouds.6 mph59%29.74 "HgN/A
5:00 pm90 °FScattered clouds.8 mph52%29.71 "HgN/A
Weather by CustomWeather, © 2020

See weather overview